| time (UTC) | temp F | wind direction | speed knots | gust knots | rain 1hr in | rain 24hr in | rain mn in | humidity % | barometer mb |
| 20260505051117 | 58 | 0.0 | 0.0 | 0.00 | 0.00 | 0.00 | 82 | 1010.6 | |
| 20260505050637 | 58 | 0.0 | 0.0 | 0.00 | 0.00 | 0.00 | 81 | 1010.5 | |
| 20260505050118 | 59 | 0.0 | 0.0 | 0.00 | 0.00 | 0.00 | 80 | 1010.5 | |
| 20260505041637 | 61 | 0.0 | 0.0 | 0.00 | 0.00 | 0.00 | 74 | 1010.0 | |
| 20260505041118 | 62 | 0.0 | 0.0 | 0.00 | 0.00 | 0.00 | 74 | 1009.7 | |
| 20260505040617 | 62 | 0.0 | 0.0 | 0.00 | 0.00 | 0.00 | 73 | 1009.6 | |
| 20260505040117 | 62 | 0.0 | 0.0 | 0.00 | 0.00 | 0.00 | 72 | 1009.5 | |
| 20260505035617 | 63 | 0.0 | 0.0 | 0.00 | 0.00 | 0.00 | 72 | 1009.5 | |
| 20260505035117 | 63 | 0.0 | 0.0 | 0.00 | 0.00 | 0.00 | 71 | 1009.4 | |
| 20260505034617 | 64 | 83 | 0.0 | 0.9 | 0.00 | 0.00 | 0.00 | 70 | 1009.5 |
| 20260505034117 | 64 | 104 | 0.0 | 0.9 | 0.00 | 0.00 | 0.00 | 70 | 1009.3 |
| 20260505033637 | 64 | 0.0 | 0.0 | 0.00 | 0.00 | 0.00 | 70 | 1009.2 | |
| 20260505033136 | 65 | 0.0 | 0.0 | 0.00 | 0.00 | 0.00 | 69 | 1009.1 | |
| 20260505032618 | 65 | 0.0 | 0.0 | 0.00 | 0.00 | 0.00 | 68 | 1009.1 | |
| 20260505032118 | 65 | 0.0 | 0.0 | 0.00 | 0.00 | 0.00 | 67 | 1009.0 | |
| 20260505031618 | 66 | 0.0 | 0.0 | 0.00 | 0.00 | 0.00 | 65 | 1008.9 | |
| 20260505031117 | 67 | 0.0 | 0.0 | 0.00 | 0.00 | 0.00 | 65 | 1008.9 | |
| 20260505030617 | 67 | 0.0 | 0.0 | 0.00 | 0.00 | 0.00 | 64 | 1008.7 | |
| 20260505030117 | 68 | 0.0 | 0.0 | 0.00 | 0.00 | 0.00 | 62 | 1008.8 | |
| 20260505025617 | 68 | 77 | 0.9 | 1.7 | 0.00 | 0.00 | 0.00 | 62 | 1008.5 |
| 20260505025117 | 69 | 0.0 | 0.0 | 0.00 | 0.00 | 0.00 | 62 | 1008.4 | |
| 20260505024617 | 69 | 112 | 0.0 | 0.9 | 0.00 | 0.00 | 0.00 | 60 | 1008.5 |
| 20260505024118 | 70 | 0.0 | 0.0 | 0.00 | 0.00 | 0.00 | 58 | 1008.4 | |
| 20260505023617 | 70 | 0.0 | 0.0 | 0.00 | 0.00 | 0.00 | 59 | 1008.4 | |
| 20260505023118 | 71 | 102 | 1.7 | 2.6 | 0.00 | 0.00 | 0.00 | 57 | 1008.2 |
| 20260505022617 | 71 | 32 | 1.7 | 1.7 | 0.00 | 0.00 | 0.00 | 56 | 1008.3 |
| 20260505022117 | 71 | 73 | 1.7 | 1.7 | 0.00 | 0.00 | 0.00 | 57 | 1008.2 |
| 20260505021637 | 72 | 83 | 0.0 | 0.9 | 0.00 | 0.00 | 0.00 | 56 | 1008.1 |
| 20260505021117 | 72 | 35 | 1.7 | 2.6 | 0.00 | 0.00 | 0.00 | 56 | 1008.1 |
| 20260505020617 | 73 | 107 | 0.0 | 0.9 | 0.00 | 0.00 | 0.00 | 56 | 1008.0 |
| 20260505020117 | 73 | 79 | 1.7 | 2.6 | 0.00 | 0.00 | 0.00 | 55 | 1008.2 |
| 20260505015617 | 74 | 86 | 0.9 | 3.5 | 0.00 | 0.00 | 0.00 | 55 | 1008.0 |
| 20260505015117 | 74 | 62 | 0.0 | 0.9 | 0.00 | 0.00 | 0.00 | 54 | 1008.0 |
| 20260505014638 | 74 | 115 | 0.9 | 1.7 | 0.00 | 0.00 | 0.00 | 53 | 1008.0 |
| 20260505014117 | 75 | 65 | 0.0 | 0.9 | 0.00 | 0.00 | 0.00 | 52 | 1008.0 |
| 20260505013617 | 76 | 345 | 0.9 | 2.6 | 0.00 | 0.00 | 0.00 | 50 | 1008.0 |
| 20260505013117 | 75 | 90 | 0.9 | 0.9 | 0.00 | 0.00 | 0.00 | 51 | 1008.0 |
| 20260505012617 | 76 | 73 | 0.9 | 1.7 | 0.00 | 0.00 | 0.00 | 51 | 1008.0 |
| 20260505012117 | 77 | 25 | 1.7 | 3.5 | 0.00 | 0.00 | 0.00 | 49 | 1008.0 |
| 20260505011617 | 76 | 0.0 | 0.0 | 0.00 | 0.00 | 0.00 | 50 | 1008.1 | |
| 20260505011138 | 76 | 76 | 0.9 | 1.7 | 0.00 | 0.00 | 0.00 | 49 | 1008.1 |
| 20260505010657 | 76 | 54 | 0.9 | 1.7 | 0.00 | 0.00 | 0.00 | 49 | 1008.1 |
| 20260505010117 | 76 | 94 | 0.9 | 1.7 | 0.00 | 0.00 | 0.00 | 49 | 1008.1 |
| 20260505005617 | 77 | 88 | 0.9 | 2.6 | 0.00 | 0.00 | 0.00 | 48 | 1008.2 |
| 20260505005117 | 77 | 52 | 0.0 | 1.7 | 0.00 | 0.00 | 0.00 | 48 | 1008.2 |
| 20260505004617 | 77 | 36 | 1.7 | 3.5 | 0.00 | 0.00 | 0.00 | 48 | 1008.1 |
| 20260505004117 | 76 | 42 | 0.9 | 2.6 | 0.00 | 0.00 | 0.00 | 48 | 1008.1 |
| 20260505003617 | 76 | 108 | 1.7 | 2.6 | 0.00 | 0.00 | 0.00 | 48 | 1008.1 |
| 20260505003117 | 77 | 88 | 0.9 | 2.6 | 0.00 | 0.00 | 0.00 | 47 | 1008.2 |
| 20260505002617 | 77 | 116 | 0.9 | 1.7 | 0.00 | 0.00 | 0.00 | 48 | 1008.1 |
| 20260505002118 | 77 | 24 | 1.7 | 6.1 | 0.00 | 0.00 | 0.00 | 48 | 1008.1 |
| 20260505001617 | 77 | 47 | 0.9 | 2.6 | 0.00 | 0.00 | 0.00 | 47 | 1008.1 |
| 20260505001137 | 77 | 17 | 5.2 | 7.8 | 0.00 | 0.00 | 0.00 | 46 | 1008.2 |
| 20260505000617 | 77 | 346 | 2.6 | 5.2 | 0.00 | 0.00 | 0.00 | 46 | 1008.1 |
| 20260505000117 | 78 | 42 | 2.6 | 7.0 | 0.00 | 0.00 | 0.00 | 44 | 1008.0 |
| 20260504235637 | 78 | 52 | 1.7 | 5.2 | 0.00 | 0.00 | 0.00 | 44 | 1008.1 |
| 20260504235137 | 78 | 23 | 0.9 | 2.6 | 0.00 | 0.00 | 0.00 | 45 | 1007.9 |
| 20260504234617 | 78 | 52 | 4.3 | 6.1 | 0.00 | 0.00 | 0.00 | 45 | 1008.1 |
| 20260504234116 | 79 | 58 | 0.9 | 3.5 | 0.00 | 0.00 | 0.00 | 44 | 1008.1 |
| 20260504233617 | 78 | 70 | 1.7 | 2.6 | 0.00 | 0.00 | 0.00 | 45 | 1008.0 |
| 20260504233117 | 77 | 0.0 | 0.0 | 0.00 | 0.00 | 0.00 | 46 | 1008.2 | |
| 20260504232617 | 78 | 43 | 2.6 | 6.1 | 0.00 | 0.00 | 0.00 | 45 | 1008.2 |
| 20260504232117 | 77 | 66 | 1.7 | 2.6 | 0.00 | 0.00 | 0.00 | 45 | 1008.2 |
| 20260504231617 | 77 | 70 | 1.7 | 3.5 | 0.00 | 0.00 | 0.00 | 45 | 1008.2 |
| 20260504231117 | 78 | 35 | 0.0 | 2.6 | 0.00 | 0.00 | 0.00 | 45 | 1008.2 |
| 20260504230637 | 77 | 15 | 2.6 | 6.1 | 0.00 | 0.00 | 0.00 | 44 | 1008.4 |
| 20260504230117 | 78 | 29 | 3.5 | 6.1 | 0.00 | 0.00 | 0.00 | 43 | 1008.3 |
| 20260504225616 | 78 | 140 | 1.7 | 2.6 | 0.00 | 0.00 | 0.00 | 43 | 1008.6 |
| 20260504225117 | 77 | 64 | 1.7 | 2.6 | 0.00 | 0.00 | 0.00 | 44 | 1008.6 |
| 20260504224618 | 78 | 113 | 0.9 | 1.7 | 0.00 | 0.00 | 0.00 | 43 | 1008.7 |
| 20260504224117 | 78 | 87 | 0.9 | 1.7 | 0.00 | 0.00 | 0.00 | 45 | 1008.7 |
| 20260504223617 | 77 | 92 | 0.0 | 0.9 | 0.00 | 0.00 | 0.00 | 45 | 1008.7 |
| 20260504223117 | 78 | 61 | 1.7 | 2.6 | 0.00 | 0.00 | 0.00 | 44 | 1008.7 |
| 20260504222617 | 77 | 100 | 0.9 | 1.7 | 0.00 | 0.00 | 0.00 | 45 | 1008.8 |
| 20260504222117 | 76 | 44 | 1.7 | 3.5 | 0.00 | 0.00 | 0.00 | 47 | 1008.8 |
| 20260504221617 | 77 | 0 | 4.3 | 7.8 | 0.00 | 0.00 | 0.00 | 46 | 1008.8 |
| 20260504221117 | 77 | 69 | 0.9 | 5.2 | 0.00 | 0.00 | 0.00 | 45 | 1008.9 |
| 20260504220618 | 77 | 24 | 4.3 | 7.0 | 0.00 | 0.00 | 0.00 | 46 | 1009.0 |
| 20260504220137 | 76 | 73 | 0.9 | 2.6 | 0.00 | 0.00 | 0.00 | 47 | 1008.8 |
| 20260504215617 | 77 | 36 | 2.6 | 7.0 | 0.00 | 0.00 | 0.00 | 45 | 1008.9 |
| 20260504215117 | 76 | 94 | 0.9 | 2.6 | 0.00 | 0.00 | 0.00 | 46 | 1009.1 |
| 20260504214637 | 76 | 22 | 3.5 | 7.0 | 0.00 | 0.00 | 0.00 | 47 | 1009.1 |
| 20260504214137 | 75 | 126 | 0.9 | 1.7 | 0.00 | 0.00 | 0.00 | 47 | 1009.2 |
| 20260504213617 | 75 | 70 | 2.6 | 3.5 | 0.00 | 0.00 | 0.00 | 48 | 1009.1 |
| 20260504213117 | 76 | 87 | 0.9 | 1.7 | 0.00 | 0.00 | 0.00 | 48 | 1009.1 |
| 20260504212617 | 76 | 255 | 1.7 | 3.5 | 0.00 | 0.00 | 0.00 | 47 | 1009.3 |
| 20260504212116 | 76 | 345 | 2.6 | 7.0 | 0.00 | 0.00 | 0.00 | 47 | 1009.2 |
| 20260504211617 | 75 | 37 | 2.6 | 5.2 | 0.00 | 0.00 | 0.00 | 48 | 1009.3 |
| 20260504211117 | 75 | 15 | 1.7 | 5.2 | 0.00 | 0.00 | 0.00 | 48 | 1009.2 |
| 20260504210618 | 75 | 91 | 0.9 | 2.6 | 0.00 | 0.00 | 0.00 | 47 | 1009.2 |
| 20260504210117 | 75 | 36 | 3.5 | 6.1 | 0.00 | 0.00 | 0.00 | 48 | 1009.2 |
| 20260504205617 | 75 | 67 | 2.6 | 5.2 | 0.00 | 0.00 | 0.00 | 48 | 1009.4 |
| 20260504205117 | 75 | 93 | 0.9 | 1.7 | 0.00 | 0.00 | 0.00 | 48 | 1009.3 |
| 20260504204617 | 75 | 36 | 3.5 | 6.1 | 0.00 | 0.00 | 0.00 | 47 | 1009.3 |
| 20260504204117 | 75 | 350 | 1.7 | 3.5 | 0.00 | 0.00 | 0.00 | 46 | 1009.3 |
| 20260504203617 | 75 | 100 | 0.0 | 0.9 | 0.00 | 0.00 | 0.00 | 47 | 1009.3 |
| 20260504203118 | 76 | 347 | 0.9 | 3.5 | 0.00 | 0.00 | 0.00 | 47 | 1009.4 |
| 20260504202617 | 76 | 30 | 1.7 | 2.6 | 0.00 | 0.00 | 0.00 | 45 | 1009.3 |
| 20260504202118 | 77 | 44 | 1.7 | 3.5 | 0.00 | 0.00 | 0.00 | 45 | 1009.4 |
| 20260504201617 | 77 | 66 | 0.9 | 2.6 | 0.00 | 0.00 | 0.00 | 45 | 1009.4 |
| 20260504201117 | 76 | 139 | 0.9 | 1.7 | 0.00 | 0.00 | 0.00 | 41 | 1009.6 |
| 20260504200617 | 75 | 204 | 2.6 | 3.5 | 0.00 | 0.00 | 0.00 | 41 | 1009.6 |
| 20260504200117 | 75 | 42 | 1.7 | 3.5 | 0.00 | 0.00 | 0.00 | 42 | 1009.5 |
| 20260504195637 | 77 | 120 | 0.9 | 2.6 | 0.00 | 0.00 | 0.00 | 42 | 1009.6 |
| 20260504195116 | 75 | 0.0 | 0.0 | 0.00 | 0.00 | 0.00 | 43 | 1009.5 | |
| 20260504194638 | 75 | 47 | 0.9 | 6.1 | 0.00 | 0.00 | 0.00 | 42 | 1009.7 |
| 20260504194117 | 76 | 12 | 2.6 | 2.6 | 0.00 | 0.00 | 0.00 | 43 | 1009.6 |
| 20260504193617 | 76 | 126 | 0.9 | 3.5 | 0.00 | 0.00 | 0.00 | 43 | 1009.7 |
| 20260504193118 | 75 | 0.0 | 0.0 | 0.00 | 0.00 | 0.00 | 45 | 1009.5 | |
| 20260504192617 | 76 | 0.0 | 0.0 | 0.00 | 0.00 | 0.00 | 43 | 1009.7 | |
| 20260504192117 | 75 | 110 | 0.0 | 1.7 | 0.00 | 0.00 | 0.00 | 45 | 1009.8 |
| 20260504191617 | 75 | 64 | 0.9 | 1.7 | 0.00 | 0.00 | 0.00 | 45 | 1009.8 |
| 20260504191157 | 76 | 79 | 0.9 | 2.6 | 0.00 | 0.00 | 0.00 | 45 | 1009.9 |
| 20260504190617 | 75 | 112 | 0.9 | 2.6 | 0.00 | 0.00 | 0.00 | 47 | 1009.7 |
| 20260504190118 | 75 | 147 | 0.9 | 2.6 | 0.00 | 0.00 | 0.00 | 48 | 1009.7 |
| 20260504185618 | 75 | 180 | 1.7 | 2.6 | 0.00 | 0.00 | 0.00 | 46 | 1009.7 |
| 20260504185117 | 75 | 0.0 | 0.0 | 0.00 | 0.00 | 0.00 | 47 | 1010.0 | |
| 20260504184617 | 76 | 86 | 0.9 | 1.7 | 0.00 | 0.00 | 0.00 | 46 | 1010.0 |
| 20260504184118 | 75 | 0.0 | 0.0 | 0.00 | 0.00 | 0.00 | 46 | 1010.0 | |
| 20260504183617 | 74 | 142 | 0.0 | 0.9 | 0.00 | 0.00 | 0.00 | 47 | 1010.1 |
| 20260504183117 | 75 | 99 | 0.9 | 1.7 | 0.00 | 0.00 | 0.00 | 48 | 1010.1 |
| 20260504182637 | 74 | 136 | 0.0 | 0.9 | 0.00 | 0.00 | 0.00 | 49 | 1010.2 |
| 20260504182137 | 75 | 0.0 | 0.0 | 0.00 | 0.00 | 0.00 | 49 | 1010.1 | |
| 20260504181617 | 74 | 98 | 0.0 | 0.9 | 0.00 | 0.00 | 0.00 | 51 | 1010.2 |
| 20260504181118 | 73 | 75 | 1.7 | 1.7 | 0.00 | 0.00 | 0.00 | 51 | 1010.2 |
| 20260504180618 | 74 | 0.0 | 0.0 | 0.00 | 0.00 | 0.00 | 51 | 1010.4 | |
| 20260504180117 | 72 | 131 | 0.0 | 1.7 | 0.00 | 0.00 | 0.00 | 51 | 1010.2 |
| 20260504175637 | 72 | 173 | 0.9 | 2.6 | 0.00 | 0.00 | 0.00 | 51 | 1010.2 |
| 20260504175137 | 72 | 120 | 0.0 | 0.9 | 0.00 | 0.00 | 0.00 | 51 | 1010.1 |
| 20260504174617 | 71 | 95 | 0.0 | 0.9 | 0.00 | 0.00 | 0.00 | 53 | 1010.3 |
| 20260504174117 | 71 | 204 | 0.9 | 2.6 | 0.00 | 0.00 | 0.00 | 53 | 1010.2 |
| 20260504173617 | 71 | 0.0 | 0.0 | 0.00 | 0.00 | 0.00 | 56 | 1010.2 | |
| 20260504173117 | 70 | 119 | 0.9 | 1.7 | 0.00 | 0.00 | 0.00 | 54 | 1010.3 |
| 20260504172638 | 71 | 89 | 1.7 | 2.6 | 0.00 | 0.00 | 0.00 | 55 | 1010.2 |
| 20260504172137 | 70 | 105 | 0.0 | 0.9 | 0.00 | 0.00 | 0.00 | 58 | 1010.2 |
| 20260504171617 | 69 | 147 | 0.0 | 0.9 | 0.00 | 0.00 | 0.00 | 58 | 1010.5 |
| 20260504171118 | 69 | 0.0 | 0.0 | 0.00 | 0.00 | 0.00 | 58 | 1010.3 | |
| 20260504170637 | 68 | 117 | 0.9 | 1.7 | 0.00 | 0.00 | 0.00 | 60 | 1010.4 |
| 20260504170117 | 67 | 0.0 | 0.0 | 0.00 | 0.00 | 0.00 | 62 | 1010.2 | |
| 20260504160117 | 63 | 107 | 0.0 | 0.9 | 0.00 | 0.00 | 0.00 | 70 | 1010.1 |
| 20260504151117 | 60 | 0.0 | 0.0 | 0.00 | 0.00 | 0.00 | 74 | 1009.9 | |
| 20260504150617 | 59 | 0.0 | 0.0 | 0.00 | 0.00 | 0.00 | 75 | 1009.8 | |
| 20260504150117 | 58 | 0.0 | 0.0 | 0.00 | 0.00 | 0.00 | 78 | 1010.0 | |
| 20260504141117 | 52 | 0.0 | 0.0 | 0.00 | 0.00 | 0.00 | 90 | 1009.8 | |
| 20260504140617 | 52 | 0.0 | 0.0 | 0.00 | 0.00 | 0.00 | 90 | 1009.8 | |
| 20260504140117 | 52 | 0.0 | 0.0 | 0.00 | 0.00 | 0.00 | 91 | 1009.7 | |
| 20260504130617 | 50 | 0.0 | 0.0 | 0.00 | 0.00 | 0.00 | 93 | 1009.3 | |
| 20260504130117 | 50 | 0.0 | 0.0 | 0.00 | 0.00 | 0.00 | 93 | 1009.2 | |
| 20260504120117 | 51 | 0.0 | 0.0 | 0.00 | 0.00 | 0.00 | 92 | 1009.1 | |
| 20260504110617 | 52 | 0.0 | 0.0 | 0.00 | 0.00 | 0.00 | 90 | 1008.9 | |
| 20260504110117 | 53 | 0.0 | 0.0 | 0.00 | 0.00 | 0.00 | 89 | 1009.0 | |
| 20260504100117 | 54 | 0.0 | 0.0 | 0.00 | 0.00 | 0.00 | 90 | 1008.9 | |
| 20260504090137 | 56 | 0.0 | 0.0 | 0.00 | 0.00 | 0.00 | 86 | 1008.7 | |
| 20260504081617 | 57 | 0.0 | 0.0 | 0.00 | 0.00 | 0.00 | 83 | 1008.8 | |
| 20260504081117 | 56 | 0.0 | 0.0 | 0.00 | 0.00 | 0.00 | 84 | 1008.9 | |
| 20260504080617 | 57 | 0.0 | 0.0 | 0.00 | 0.00 | 0.00 | 84 | 1008.8 | |
| 20260504080117 | 57 | 0.0 | 0.0 | 0.00 | 0.00 | 0.00 | 84 | 1008.6 | |
| 20260504070117 | 59 | 0.0 | 0.0 | 0.00 | 0.00 | 0.00 | 78 | 1008.7 | |
| 20260504060117 | 61 | 0.0 | 0.0 | 0.00 | 0.00 | 0.00 | 72 | 1008.6 |